Starlink 5803

operational
NORAD ID: 56008 Int'l Des: 2023-042 Owner: SPXS Country: US Constellation: starlink
LEOCIRCULAR

关于 Starlink 5803

正在加载描述...

实时位置

正在加载3D地球...

即将过境

高度历史

Altitude vs Time

uPlot chart will show altitude changes over time

两行轨道根数

1 56008U 23042Y 25354.42532770 -.00000191 00000-0 93507-6 0 9991
2 56008 43.0070 127.0803 0001482 268.1792 91.8880 15.02535586150972
Epoch: Dec 20, 2025 • Age: 25 hours

当前状态

高度 570.7 km
速度 7.58 km/s
星下点 -41.27°S, 150.66°E
发射日期 Mar 24, 2023
运行时间 2.7 years
类型 internet

技术详情

分类 Payload
质量 305.00 kg
干质量 290.00 kg
总质量 305.00 kg
长度 0.20 m
直径 2.80 m
跨度 9.00 m
形状 Box + pan
制造商 SPXS
平台类型 Starlink
阶段状态 In Orbit
所有者/国家 SPXS/US

大型星座

Loading constellations...